Location: B?jaj?g
(11.7167°N, 92.6667°E)
Time: 13:51:30
(UTC+00:00)

GPS 2-17 Rocket1 - Pass Details

Date: 18 September 2020
Orbit: 571 x 659 km, 20.3° (Epoch: 25 October)

Event Time Altitude Azimuth Distance (km) Brightness Sun altitude
Rises 13:19:42 0° 259° (W) 2,885 7.7 -23.2°
Reaches altitude 10° 13:22:03 10° 262° (W) 1,993 6.7 -23.8°
Maximum altitude 13:26:42 66° 344° (NNW) 693 3.2 -24.9°
Enters shadow 13:26:53 65° 360° (N) 698 3.2 -25.0°
